[[{"header":{"parameterUnit":"m.s-1","parameterCategory":1,"la1":30.2992,"la2":30.254,"lo1":-89.0895,"lo2":-89.0443,"dy":0.0025,"dx":0.0025,"nx":19,"ny":19,"refTime":"2026-03-25T09:00:00:Z","depth":0,"parameterNumber":2,"parameterNumberName":"U-component_of_WINDS"},"data":[0,0,0,-1.3562,-1.3564,-1.3626,-1.3627,-1.3708,-1.3708,0,0,0,0,0,0,0,0,0,0,0,-1.3543,-1.3543,-1.3562,-1.3564,-1.3626,-1.3627,-1.3708,-1.3708,0,0,0,0,0,0,0,0,0,0,0,-1.3543,-1.3543,-1.3544,-1.3564,-1.3626,-1.3627,-1.3707,-1.366,0,0,0,0,0,0,0,0,0,0,-1.3599,-1.358,-1.3543,-1.3544,-1.3564,-1.3626,-1.3627,-1.3658,-1.3663,-1.3679,0,-1.3692,0,-1.3702,-1.3714,-1.3714,0,0,0,-1.3565,-1.3576,-1.3593,-1.3544,-1.3565,-1.3626,-1.3598,-1.3661,-1.3667,-1.3686,-1.3693,-1.3696,-1.3703,-1.3714,-1.3715,-1.3803,-1.3803,0,0,-1.3561,-1.3554,-1.3589,-1.3597,-1.3586,-1.3596,-1.36,-1.3664,-1.3672,-1.3694,-1.3698,-1.3704,-1.3715,-1.3715,-1.3803,-1.3803,0,0,0,-1.3551,-1.3551,-1.3568,-1.3594,-1.3605,-1.3598,-1.3603,-1.3669,-1.3675,-1.3699,-1.3705,-1.3715,-1.3716,-1.3802,-1.3803,-1.3814,0,0,0,-1.3549,-1.3545,-1.3566,-1.3562,-1.3604,-1.3638,-1.3606,-1.3671,-1.3678,-1.3705,-1.3715,-1.3717,-1.3802,-1.3802,-1.3812,-1.382,0,0,0,-1.3539,-1.3544,-1.3553,-1.3562,-1.3588,-1.3637,-1.3646,-1.3672,-1.3682,-1.3714,-1.3717,-1.3801,-1.3802,-1.3811,-1.3818,-1.3842,0,0,0,-1.3527,-1.3562,-1.3553,-1.3594,-1.3588,-1.3643,-1.3646,-1.3687,-1.3716,-1.3716,-1.3802,-1.3803,-1.3811,-1.3817,-1.384,-1.386,-1.3867,0,0,-1.3567,-1.3566,-1.3591,-1.3585,-1.364,-1.3634,-1.3691,-1.3724,-1.3735,-1.378,-1.3782,-1.3813,-1.3818,-1.3841,-1.391,-1.3916,0,0,0,-1.3601,-1.3619,-1.3635,-1.3662,-1.3688,-1.3712,-1.3738,-1.3751,-1.379,-1.3756,-1.3828,-1.3831,-1.3845,-1.3855,-1.386,-1.3872,-1.3807,-1.3807,-1.3806,-1.3647,-1.3658,-1.37,-1.3719,-1.3745,-1.3772,-1.3795,-1.3817,-1.382,-1.3837,-1.3851,-1.3891,-1.3902,-1.3906,-1.3919,-1.3862,-1.3862,-1.3862,-1.3862,-1.3706,-1.3733,-1.3738,-1.378,-1.3792,-1.3828,-1.3856,-1.3858,-1.3894,-1.3881,-1.3894,-1.3879,-1.3911,-1.3924,-1.3863,-1.3863,-1.3863,-1.3862,-1.3862,-1.3737,-1.3752,-1.3767,-1.3808,-1.3839,-1.3857,-1.3892,-1.3902,-1.3912,-1.3924,-1.394,-1.394,-1.3942,-1.3931,-1.3931,-1.3931,-1.3932,-1.3932,-1.3932,-1.3764,-1.378,-1.3808,-1.3839,-1.3859,-1.3885,-1.3914,-1.3933,-1.3958,-1.3963,-1.3963,-1.3965,-1.3912,-1.3899,-1.3934,-1.3934,-1.3933,-1.3933,-1.3933,-1.3821,-1.381,-1.3852,-1.3871,-1.391,-1.3941,-1.3953,-1.3992,-1.401,-1.4028,-1.4028,-1.3987,-1.3987,-1.3983,-1.3972,-1.4024,-1.4024,-1.4025,-1.4025,-1.3847,-1.3849,-1.3895,-1.3925,-1.3956,-1.3972,-1.4021,-1.4044,-1.4067,-1.4079,-1.4073,-1.4059,-1.4055,-1.4058,-1.4053,-1.4043,-1.4111,-1.4111,-1.4111,-1.3883,-1.3888,-1.3927,-1.3948,-1.3979,-1.4006,-1.4054,-1.409,-1.4113,-1.4115,-1.4089,-1.4085,-1.4063,-1.4055,-1.4057,-1.4048,-1.403,0,0]},{"header":{"parameterUnit":"m.s-1","parameterCategory":1,"la1":30.2992,"la2":30.254,"lo1":-89.0895,"lo2":-89.0443,"dy":0.0025,"dx":0.0025,"nx":19,"ny":19,"refTime":"2026-03-25T09:00:00:Z","depth":0,"parameterNumber":3,"parameterNumberName":"V-component_of_WINDS"},"data":[0,0,0,4.2007,4.2009,4.2121,4.2122,4.2266,4.2267,0,0,0,0,0,0,0,0,0,0,0,4.1975,4.1976,4.2006,4.2009,4.2121,4.2122,4.2265,4.2267,0,0,0,0,0,0,0,0,0,0,0,4.1974,4.1975,4.1977,4.201,4.2121,4.2122,4.2265,4.218,0,0,0,0,0,0,0,0,0,0,4.2071,4.2043,4.1975,4.1977,4.201,4.2121,4.2122,4.2176,4.2185,4.2215,0,4.2244,0,4.2258,4.2277,4.2277,0,0,0,4.2008,4.2035,4.2064,4.1977,4.2011,4.2121,4.207,4.2181,4.2192,4.2228,4.2246,4.2251,4.226,4.2278,4.2278,4.2461,4.2462,0,0,4.2001,4.1995,4.2057,4.2071,4.2056,4.2067,4.2074,4.2187,4.2206,4.2246,4.2254,4.2262,4.2279,4.228,4.246,4.2462,0,0,0,4.1985,4.1991,4.2017,4.2066,4.2086,4.207,4.2078,4.2201,4.221,4.2256,4.2264,4.2279,4.2281,4.2459,4.2461,4.2502,0,0,0,4.1981,4.1981,4.2015,4.2012,4.2084,4.2145,4.2089,4.2202,4.2215,4.2263,4.2279,4.2283,4.2458,4.246,4.2499,4.2522,0,0,0,4.1967,4.1979,4.1996,4.2011,4.206,4.2143,4.2159,4.2205,4.222,4.2277,4.2283,4.2458,4.246,4.2496,4.2517,4.2569,0,0,0,4.1949,4.2029,4.1997,4.209,4.2059,4.2168,4.2158,4.224,4.2293,4.228,4.2459,4.2461,4.2495,4.2514,4.2566,4.2612,4.2631,0,0,4.2047,4.2041,4.2096,4.207,4.2184,4.2152,4.2271,4.2325,4.2335,4.2418,4.2423,4.25,4.2517,4.2568,4.2737,4.2752,0,0,0,4.2125,4.2164,4.2196,4.2248,4.2292,4.2333,4.2369,4.239,4.2461,4.2377,4.2533,4.2543,4.2573,4.2596,4.2608,4.2635,4.2471,4.2471,4.247,4.2252,4.2263,4.2355,4.238,4.2431,4.2469,4.2511,4.2545,4.2539,4.2575,4.26,4.2701,4.2727,4.2737,4.2765,4.2625,4.2625,4.2625,4.2625,4.2396,4.2454,4.2447,4.2534,4.2545,4.2618,4.2658,4.2652,4.2721,4.2683,4.271,4.2668,4.2753,4.2778,4.2629,4.2628,4.2628,4.2627,4.2627,4.2481,4.2511,4.2536,4.2613,4.2672,4.2694,4.2761,4.2768,4.2774,4.2802,4.2829,4.2829,4.2829,4.2815,4.2815,4.2815,4.2816,4.2816,4.2816,4.2559,4.2586,4.2643,4.2699,4.2734,4.2781,4.2822,4.2857,4.2896,4.2896,4.2896,4.2887,4.2759,4.2727,4.2822,4.2821,4.282,4.2819,4.2819,4.2701,4.2671,4.2759,4.2794,4.2861,4.292,4.2928,4.2998,4.3028,4.3061,4.3047,4.2951,4.2945,4.2935,4.2908,4.3044,4.3044,4.3044,4.3044,4.2773,4.2772,4.2864,4.2921,4.2977,4.2994,4.3093,4.3126,4.3155,4.3174,4.3155,4.312,4.311,4.311,4.3096,4.3072,4.3246,4.3246,4.3246,4.2862,4.2866,4.2949,4.2979,4.3032,4.3078,4.3171,4.3236,4.3262,4.3255,4.3189,4.318,4.3125,4.3106,4.3096,4.3074,4.3029,0,0]}]]